SAS14L ESSA-EKCH

Flight info

Callsign SAS14L
Flight time 1h 7m
Altitude 36000
Route PETEV N872 ELPAX DCT TOKSI N872 ERNOV
Aircraft A21N/M-SDE3FGHIRWY/LB1

Departure

Time 2026-05-04 18:13
Airport Stockholm-Arlanda Airport (ESSA)

Arrival

Time 2026-05-04 19:21
Airport Copenhagen Kastrup Airport (EKCH)
Time Latitude Longitude Altitude Speed Heading
2026-05-04 17:39 59.65356 17.93549 111 ft 0 kts 75°
2026-05-04 17:55 59.65355 17.93541 111 ft 2 kts 76°
2026-05-04 17:56 59.65351 17.93513 111 ft 1 kts 75°
2026-05-04 17:56 59.65348 17.93494 111 ft 2 kts 72°
2026-05-04 17:56 59.65342 17.93467 111 ft 2 kts 60°
2026-05-04 17:56 59.65334 17.93443 111 ft 2 kts 50°
2026-05-04 17:57 59.65324 17.93421 111 ft 2 kts 41°
2026-05-04 17:57 59.65312 17.93403 111 ft 2 kts 31°
2026-05-04 17:57 59.65305 17.93396 111 ft 1 kts 26°
2026-05-04 17:57 59.65301 17.93392 111 ft 0 kts 25°
2026-05-04 18:06 59.65304 17.93395 111 ft 1 kts 25°
2026-05-04 18:06 59.65317 17.93407 111 ft 2 kts 21°
2026-05-04 18:07 59.65342 17.93401 111 ft 4 kts 348°
2026-05-04 18:07 59.65376 17.93386 111 ft 5 kts 345°
2026-05-04 18:07 59.65418 17.93362 111 ft 6 kts 344°
2026-05-04 18:07 59.65469 17.93342 111 ft 8 kts 359°
2026-05-04 18:08 59.65520 17.93300 111 ft 8 kts 298°
2026-05-04 18:08 59.65519 17.93171 110 ft 10 kts 259°
2026-05-04 18:08 59.65499 17.93026 110 ft 11 kts 253°
2026-05-04 18:08 59.65471 17.92866 109 ft 13 kts 250°
2026-05-04 18:09 59.65490 17.92565 108 ft 12 kts 332°
2026-05-04 18:09 59.65664 17.92461 107 ft 13 kts 346°
2026-05-04 18:10 59.65752 17.92426 108 ft 12 kts
2026-05-04 18:10 59.65837 17.92447 109 ft 12 kts
2026-05-04 18:10 59.65919 17.92476 110 ft 11 kts 11°
2026-05-04 18:10 59.65998 17.92504 111 ft 11 kts 10°
2026-05-04 18:11 59.66087 17.92536 112 ft 16 kts 11°
2026-05-04 18:11 59.66230 17.92592 115 ft 25 kts 11°
2026-05-04 18:11 59.66395 17.92650 117 ft 17 kts
2026-05-04 18:11 59.66508 17.92621 119 ft 15 kts 343°
2026-05-04 18:12 59.66604 17.92533 120 ft 14 kts 307°
2026-05-04 18:12 59.66581 17.92366 120 ft 14 kts 207°
2026-05-04 18:12 59.66481 17.92315 118 ft 15 kts 188°
2026-05-04 18:12 59.66314 17.92255 116 ft 52 kts 191°
2026-05-04 18:13 59.65715 17.92035 107 ft 121 kts 189°
2026-05-04 18:13 59.64680 17.91653 139 ft 173 kts 195°
2026-05-04 18:13 59.62437 17.90991 1643 ft 163 kts 195°
2026-05-04 18:14 59.61391 17.90232 2218 ft 165 kts 223°
2026-05-04 18:14 59.60679 17.88419 2680 ft 176 kts 241°
2026-05-04 18:14 59.60048 17.86254 3095 ft 192 kts 242°
2026-05-04 18:15 59.58598 17.81314 4057 ft 222 kts 244°
2026-05-04 18:15 59.57085 17.75635 5284 ft 247 kts 241°
2026-05-04 18:15 59.56088 17.72890 6120 ft 251 kts 234°
2026-05-04 18:16 59.54929 17.70385 6936 ft 254 kts 230°
2026-05-04 18:16 59.53705 17.67864 7733 ft 258 kts 230°
2026-05-04 18:16 59.52462 17.65324 8521 ft 261 kts 230°
2026-05-04 18:17 59.49951 17.60195 10055 ft 267 kts 231°
2026-05-04 18:17 59.48642 17.57520 10508 ft 281 kts 231°
2026-05-04 18:17 59.45782 17.51681 11253 ft 312 kts 230°
2026-05-04 18:18 59.44258 17.48589 11948 ft 316 kts 230°
2026-05-04 18:18 59.42747 17.45533 12717 ft 318 kts 230°
2026-05-04 18:18 59.41204 17.42416 13466 ft 319 kts 230°
2026-05-04 18:18 59.39670 17.39315 14197 ft 320 kts 231°
2026-05-04 18:19 59.36581 17.33084 15594 ft 324 kts 230°
2026-05-04 18:19 59.35012 17.29925 16258 ft 326 kts 231°
2026-05-04 18:19 59.33456 17.26793 16897 ft 328 kts 231°
2026-05-04 18:20 59.31879 17.23619 17514 ft 331 kts 231°
2026-05-04 18:20 59.30291 17.20428 18083 ft 334 kts 231°
2026-05-04 18:20 59.28659 17.17160 18689 ft 336 kts 232°
2026-05-04 18:20 59.27034 17.13910 19300 ft 338 kts 231°
2026-05-04 18:21 59.25398 17.10637 19904 ft 339 kts 232°
2026-05-04 18:21 59.23743 17.07333 20439 ft 342 kts 231°
2026-05-04 18:21 59.22080 17.04016 20982 ft 345 kts 231°
2026-05-04 18:21 59.20365 17.00830 21505 ft 349 kts 228°
2026-05-04 18:22 59.18491 16.97718 22010 ft 354 kts 226°
2026-05-04 18:22 59.16616 16.94665 22507 ft 356 kts 227°
2026-05-04 18:22 59.14721 16.91572 22972 ft 358 kts 226°
2026-05-04 18:22 59.12823 16.88479 23415 ft 361 kts 226°
2026-05-04 18:23 59.10888 16.85333 23881 ft 363 kts 226°
2026-05-04 18:23 59.08941 16.82181 24316 ft 366 kts 226°
2026-05-04 18:23 59.06997 16.79036 24728 ft 369 kts 226°
2026-05-04 18:23 59.05045 16.75881 25112 ft 371 kts 226°
2026-05-04 18:24 59.03058 16.72680 25478 ft 374 kts 226°
2026-05-04 18:24 59.01061 16.69461 25844 ft 377 kts 226°
2026-05-04 18:24 58.99035 16.66203 26202 ft 380 kts 226°
2026-05-04 18:24 58.96999 16.62938 26541 ft 382 kts 226°
2026-05-04 18:25 58.94960 16.59671 26880 ft 385 kts 226°
2026-05-04 18:25 58.92883 16.56353 27215 ft 387 kts 226°
2026-05-04 18:25 58.90823 16.53064 27518 ft 390 kts 226°
2026-05-04 18:25 58.88753 16.49767 27826 ft 392 kts 226°
2026-05-04 18:26 58.86646 16.46415 28117 ft 394 kts 226°
2026-05-04 18:26 58.84608 16.43181 28386 ft 397 kts 226°
2026-05-04 18:26 58.82500 16.39838 28666 ft 399 kts 226°
2026-05-04 18:26 58.80358 16.36448 28954 ft 401 kts 226°
2026-05-04 18:27 58.78235 16.33091 29236 ft 403 kts 225°
2026-05-04 18:27 58.76073 16.29681 29502 ft 405 kts 225°
2026-05-04 18:27 58.73957 16.26347 29754 ft 407 kts 225°
2026-05-04 18:27 58.71809 16.22971 30042 ft 408 kts 225°
2026-05-04 18:28 58.69639 16.19570 30383 ft 408 kts 225°
2026-05-04 18:28 58.67442 16.16135 30726 ft 407 kts 225°
2026-05-04 18:28 58.65255 16.12717 31042 ft 407 kts 225°
2026-05-04 18:28 58.63080 16.09321 31368 ft 406 kts 225°
2026-05-04 18:29 58.60889 16.05907 31676 ft 405 kts 225°
2026-05-04 18:29 58.58714 16.02518 31947 ft 405 kts 225°
2026-05-04 18:29 58.56531 15.99126 32243 ft 404 kts 225°
2026-05-04 18:29 58.54366 15.95765 32560 ft 403 kts 225°
2026-05-04 18:30 58.50043 15.89067 33003 ft 404 kts 225°
2026-05-04 18:30 58.47867 15.85705 33261 ft 403 kts 225°
2026-05-04 18:30 58.45696 15.82356 33503 ft 403 kts 225°
2026-05-04 18:31 58.43525 15.79016 33740 ft 402 kts 225°
2026-05-04 18:31 58.41364 15.75695 33971 ft 402 kts 225°
2026-05-04 18:31 58.39191 15.72362 34159 ft 402 kts 225°
2026-05-04 18:31 58.37041 15.69071 34305 ft 404 kts 225°
2026-05-04 18:32 58.34856 15.65734 34464 ft 405 kts 225°
2026-05-04 18:32 58.32669 15.62394 34609 ft 405 kts 225°
2026-05-04 18:32 58.30476 15.59048 34713 ft 406 kts 225°
2026-05-04 18:33 58.26073 15.52351 34898 ft 409 kts 225°
2026-05-04 18:33 58.23856 15.48988 35003 ft 409 kts 225°
2026-05-04 18:33 58.21667 15.45670 35101 ft 409 kts 225°
2026-05-04 18:34 58.17214 15.38939 35272 ft 411 kts 224°
2026-05-04 18:34 58.12778 15.32258 35421 ft 413 kts 224°
2026-05-04 18:34 58.10532 15.28886 35527 ft 414 kts 223°
2026-05-04 18:35 58.08397 15.25685 35597 ft 415 kts 223°
2026-05-04 18:35 58.03919 15.18998 35755 ft 416 kts 223°
2026-05-04 18:36 57.99383 15.12246 35784 ft 417 kts 223°
2026-05-04 18:36 57.94866 15.05542 35798 ft 416 kts 223°
2026-05-04 18:37 57.90340 14.98842 35807 ft 416 kts 223°
2026-05-04 18:37 57.85828 14.92183 35810 ft 416 kts 223°
2026-05-04 18:38 57.81477 14.85781 35813 ft 417 kts 223°
2026-05-04 18:38 57.76937 14.79125 35809 ft 417 kts 223°
2026-05-04 18:39 57.72378 14.72463 35819 ft 417 kts 223°
2026-05-04 18:39 57.67824 14.65827 35820 ft 417 kts 223°
2026-05-04 18:40 57.63272 14.59220 35821 ft 418 kts 223°
2026-05-04 18:40 57.58709 14.52614 35822 ft 417 kts 223°
2026-05-04 18:41 57.54112 14.45985 35643 ft 418 kts 223°
2026-05-04 18:41 57.51847 14.42727 35491 ft 416 kts 223°
2026-05-04 18:41 57.49562 14.39446 35331 ft 414 kts 223°
2026-05-04 18:41 57.47302 14.36206 35148 ft 412 kts 223°
2026-05-04 18:42 57.45038 14.32965 34961 ft 410 kts 222°
2026-05-04 18:42 57.42834 14.29812 34777 ft 408 kts 222°
2026-05-04 18:42 57.40619 14.26650 34579 ft 408 kts 222°
2026-05-04 18:42 57.38380 14.23456 34333 ft 408 kts 222°
2026-05-04 18:43 57.36139 14.20262 34080 ft 408 kts 222°
2026-05-04 18:43 57.33890 14.17065 33835 ft 409 kts 222°
2026-05-04 18:43 57.31636 14.13865 33587 ft 410 kts 222°
2026-05-04 18:43 57.29382 14.10672 33337 ft 410 kts 222°
2026-05-04 18:44 57.27132 14.07489 33087 ft 411 kts 222°
2026-05-04 18:44 57.25615 14.05343 32919 ft 412 kts 222°
2026-05-04 18:44 57.22598 14.01086 32588 ft 413 kts 222°
2026-05-04 18:44 57.20303 13.97853 32322 ft 415 kts 221°
2026-05-04 18:45 57.18035 13.94669 31961 ft 416 kts 221°
2026-05-04 18:45 57.15739 13.91447 31523 ft 417 kts 221°
2026-05-04 18:45 57.13456 13.88250 31020 ft 418 kts 221°
2026-05-04 18:45 57.11146 13.85027 30447 ft 419 kts 221°
2026-05-04 18:46 57.08831 13.81803 29842 ft 420 kts 221°
2026-05-04 18:46 57.06513 13.78576 29236 ft 420 kts 221°
2026-05-04 18:46 57.04197 13.75359 28624 ft 417 kts 221°
2026-05-04 18:46 57.01920 13.72197 28097 ft 412 kts 221°
2026-05-04 18:47 56.99654 13.69056 27737 ft 409 kts 221°
2026-05-04 18:47 56.97408 13.65943 27362 ft 407 kts 221°
2026-05-04 18:47 56.95158 13.62830 26972 ft 405 kts 221°
2026-05-04 18:47 56.92931 13.59754 26501 ft 403 kts 221°
2026-05-04 18:48 56.90698 13.56676 25983 ft 399 kts 221°
2026-05-04 18:48 56.88514 13.53672 25499 ft 395 kts 221°
2026-05-04 18:48 56.86356 13.50705 25027 ft 391 kts 222°
2026-05-04 18:48 56.84191 13.47732 24561 ft 388 kts 222°
2026-05-04 18:49 56.82314 13.45155 24153 ft 385 kts 222°
2026-05-04 18:49 56.80210 13.42273 23700 ft 382 kts 222°
2026-05-04 18:49 56.78093 13.39377 23239 ft 379 kts 222°
2026-05-04 18:49 56.76012 13.36537 22779 ft 376 kts 222°
2026-05-04 18:50 56.73949 13.33724 22321 ft 373 kts 221°
2026-05-04 18:50 56.71901 13.30932 21863 ft 371 kts 221°
2026-05-04 18:50 56.69871 13.28161 21401 ft 368 kts 221°
2026-05-04 18:50 56.67855 13.25415 20942 ft 366 kts 221°
2026-05-04 18:51 56.65821 13.22648 20482 ft 363 kts 221°
2026-05-04 18:51 56.63825 13.19935 20044 ft 361 kts 221°
2026-05-04 18:51 56.61827 13.17237 19588 ft 359 kts 221°
2026-05-04 18:51 56.59821 13.14535 19129 ft 356 kts 221°
2026-05-04 18:52 56.57851 13.11885 18652 ft 353 kts 221°
2026-05-04 18:52 56.55899 13.09263 18227 ft 351 kts 221°
2026-05-04 18:52 56.53947 13.06640 17772 ft 349 kts 221°
2026-05-04 18:52 56.52023 13.04058 17331 ft 347 kts 221°
2026-05-04 18:53 56.50099 13.01478 16856 ft 345 kts 221°
2026-05-04 18:53 56.48177 12.98903 16412 ft 342 kts 221°
2026-05-04 18:53 56.46283 12.96369 15979 ft 340 kts 221°
2026-05-04 18:53 56.44407 12.93865 15657 ft 332 kts 221°
2026-05-04 18:54 56.42570 12.91419 15311 ft 327 kts 221°
2026-05-04 18:54 56.40775 12.89030 14929 ft 319 kts 221°
2026-05-04 18:54 56.39000 12.86667 14428 ft 313 kts 221°
2026-05-04 18:54 56.37288 12.84392 14043 ft 307 kts 221°
2026-05-04 18:55 56.35593 12.82141 13688 ft 302 kts 221°
2026-05-04 18:55 56.32268 12.77731 13016 ft 293 kts 221°
2026-05-04 18:55 56.30636 12.75570 12686 ft 288 kts 221°
2026-05-04 18:56 56.29058 12.73481 12340 ft 283 kts 221°
2026-05-04 18:56 56.27484 12.71402 11962 ft 278 kts 221°
2026-05-04 18:56 56.25938 12.69362 11566 ft 274 kts 221°
2026-05-04 18:56 56.24436 12.67382 11190 ft 269 kts 221°
2026-05-04 18:57 56.22945 12.65420 10860 ft 263 kts 221°
2026-05-04 18:57 56.21474 12.63485 10568 ft 257 kts 221°
2026-05-04 18:57 56.20068 12.61637 10316 ft 251 kts 221°
2026-05-04 18:57 56.18676 12.59810 10096 ft 245 kts 221°
2026-05-04 18:58 56.17260 12.58171 9934 ft 239 kts 213°
2026-05-04 18:58 56.15733 12.56978 9947 ft 242 kts 205°
2026-05-04 18:58 56.14102 12.56125 9931 ft 244 kts 201°
2026-05-04 18:58 56.12474 12.55356 9930 ft 244 kts 200°
2026-05-04 18:59 56.10828 12.54591 9934 ft 244 kts 200°
2026-05-04 18:59 56.09196 12.53830 9929 ft 245 kts 200°
2026-05-04 18:59 56.07533 12.53052 9926 ft 245 kts 200°
2026-05-04 18:59 56.05948 12.52097 9908 ft 240 kts 217°
2026-05-04 19:00 56.04706 12.50173 9933 ft 235 kts 232°
2026-05-04 19:00 56.03648 12.47959 9942 ft 234 kts 235°
2026-05-04 19:00 56.02636 12.45729 9936 ft 233 kts 235°
2026-05-04 19:00 56.01629 12.43487 9931 ft 233 kts 235°
2026-05-04 19:01 56.00610 12.41215 9928 ft 233 kts 235°
2026-05-04 19:01 55.99597 12.38955 9928 ft 233 kts 235°
2026-05-04 19:01 55.98609 12.36747 9817 ft 228 kts 235°
2026-05-04 19:01 55.97628 12.34547 9437 ft 229 kts 234°
2026-05-04 19:02 55.96640 12.32328 9045 ft 230 kts 234°
2026-05-04 19:02 55.95683 12.30180 8700 ft 230 kts 234°
2026-05-04 19:02 55.94688 12.27946 8339 ft 229 kts 234°
2026-05-04 19:02 55.93707 12.25739 7983 ft 229 kts 234°
2026-05-04 19:03 55.92725 12.23521 7618 ft 229 kts 234°
2026-05-04 19:03 55.91743 12.21301 7260 ft 228 kts 234°
2026-05-04 19:03 55.90763 12.19083 6907 ft 228 kts 234°
2026-05-04 19:03 55.89791 12.16883 6557 ft 227 kts 235°
2026-05-04 19:04 55.88811 12.14666 6205 ft 227 kts 234°
2026-05-04 19:04 55.87896 12.12593 5877 ft 226 kts 234°
2026-05-04 19:04 55.86913 12.10486 5532 ft 227 kts 225°
2026-05-04 19:04 55.85511 12.09168 5134 ft 236 kts 195°
2026-05-04 19:05 55.83880 12.08840 4816 ft 236 kts 186°
2026-05-04 19:05 55.82248 12.08729 4479 ft 236 kts 185°
2026-05-04 19:05 55.80629 12.08656 4152 ft 235 kts 185°
2026-05-04 19:05 55.79016 12.08586 3999 ft 233 kts 185°
2026-05-04 19:06 55.77388 12.08513 3998 ft 234 kts 185°
2026-05-04 19:06 55.75758 12.08465 3991 ft 236 kts 180°
2026-05-04 19:06 55.74206 12.09364 3951 ft 242 kts 142°
2026-05-04 19:06 55.73279 12.11817 3981 ft 245 kts 102°
2026-05-04 19:07 55.73143 12.14787 4016 ft 245 kts 89°
2026-05-04 19:07 55.73114 12.17798 4004 ft 245 kts 90°
2026-05-04 19:07 55.73031 12.20818 3996 ft 245 kts 92°
2026-05-04 19:07 55.72892 12.23854 3993 ft 245 kts 94°
2026-05-04 19:08 55.72720 12.26838 3992 ft 246 kts 95°
2026-05-04 19:08 55.72528 12.29830 3997 ft 246 kts 96°
2026-05-04 19:08 55.72324 12.32858 3990 ft 245 kts 96°
2026-05-04 19:08 55.72117 12.35847 3984 ft 245 kts 96°
2026-05-04 19:09 55.71909 12.38845 3992 ft 245 kts 96°
2026-05-04 19:09 55.71701 12.41813 3994 ft 246 kts 96°
2026-05-04 19:09 55.71491 12.44821 3986 ft 246 kts 96°
2026-05-04 19:09 55.71278 12.47859 3979 ft 247 kts 95°
2026-05-04 19:10 55.71243 12.50873 3983 ft 245 kts 79°
2026-05-04 19:10 55.71713 12.53711 3973 ft 242 kts 62°
2026-05-04 19:10 55.72466 12.56385 3978 ft 241 kts 58°
2026-05-04 19:10 55.73249 12.58985 4005 ft 242 kts 58°
2026-05-04 19:11 55.74039 12.61641 4010 ft 242 kts 58°
2026-05-04 19:11 55.74915 12.64142 3993 ft 240 kts 51°
2026-05-04 19:11 55.75839 12.66504 3983 ft 227 kts 52°
2026-05-04 19:11 55.76694 12.68738 4081 ft 219 kts 52°
2026-05-04 19:12 55.77555 12.70997 4039 ft 219 kts 52°
2026-05-04 19:12 55.79247 12.75453 4005 ft 218 kts 52°
2026-05-04 19:12 55.80078 12.77648 3814 ft 214 kts 52°
2026-05-04 19:13 55.80913 12.79852 3382 ft 214 kts 52°
2026-05-04 19:13 55.81737 12.82033 3034 ft 211 kts 52°
2026-05-04 19:13 55.82548 12.84193 2989 ft 212 kts 52°
2026-05-04 19:13 55.83366 12.86370 2985 ft 213 kts 52°
2026-05-04 19:14 55.84190 12.88577 2982 ft 214 kts 52°
2026-05-04 19:14 55.84920 12.90864 2967 ft 218 kts 67°
2026-05-04 19:14 55.84954 12.93578 2963 ft 224 kts 104°
2026-05-04 19:14 55.84136 12.95870 2969 ft 224 kts 140°
2026-05-04 19:15 55.82744 12.96979 2973 ft 217 kts 176°
2026-05-04 19:15 55.81328 12.96526 2975 ft 207 kts 212°
2026-05-04 19:15 55.80241 12.94940 2995 ft 201 kts 230°
2026-05-04 19:15 55.79275 12.93157 2987 ft 201 kts 231°
2026-05-04 19:16 55.78311 12.91395 2966 ft 193 kts 230°
2026-05-04 19:16 55.77377 12.89800 2996 ft 181 kts 228°
2026-05-04 19:16 55.76457 12.88296 2986 ft 181 kts 227°
2026-05-04 19:16 55.75518 12.86805 2982 ft 182 kts 227°
2026-05-04 19:17 55.74572 12.85333 2980 ft 182 kts 226°
2026-05-04 19:17 55.73608 12.83846 2908 ft 182 kts 226°
2026-05-04 19:17 55.72656 12.82383 2673 ft 182 kts 226°
2026-05-04 19:17 55.71707 12.80922 2421 ft 182 kts 226°
2026-05-04 19:18 55.70755 12.79456 2177 ft 183 kts 226°
2026-05-04 19:18 55.69789 12.77969 1931 ft 183 kts 226°
2026-05-04 19:18 55.68838 12.76505 1689 ft 179 kts 226°
2026-05-04 19:18 55.67942 12.75126 1424 ft 162 kts 226°
2026-05-04 19:19 55.67140 12.73888 1190 ft 145 kts 226°
2026-05-04 19:19 55.66392 12.72727 1021 ft 143 kts 226°
2026-05-04 19:19 55.65648 12.71571 840 ft 143 kts 226°
2026-05-04 19:19 55.64903 12.70419 661 ft 142 kts 225°
2026-05-04 19:20 55.64158 12.69268 468 ft 142 kts 225°
2026-05-04 19:20 55.63418 12.68122 289 ft 141 kts 225°
2026-05-04 19:20 55.62691 12.66989 78 ft 139 kts 225°
2026-05-04 19:20 55.62006 12.65918 18 ft 114 kts 219°
2026-05-04 19:21 55.61629 12.65326 21 ft 41 kts 245°
2026-05-04 19:21 55.61620 12.65021 22 ft 19 kts 295°
2026-05-04 19:21 55.61686 12.64873 22 ft 11 kts 319°
2026-05-04 19:21 55.61725 12.64821 22 ft 4 kts 331°
2026-05-04 19:22 55.61751 12.64801 22 ft 0 kts 341°
2026-05-04 19:22 55.61800 12.64783 22 ft 11 kts 356°
2026-05-04 19:23 55.61877 12.64808 21 ft 11 kts 23°
2026-05-04 19:23 55.61951 12.64883 21 ft 12 kts 33°
2026-05-04 19:23 55.62027 12.64969 21 ft 13 kts 33°
2026-05-04 19:23 55.62078 12.65029 21 ft 4 kts 34°
2026-05-04 19:24 55.62080 12.65030 21 ft 0 kts 34°
2026-05-04 19:24 55.62082 12.65033 21 ft 1 kts 34°
2026-05-04 19:25 55.62093 12.65045 21 ft 2 kts 34°
2026-05-04 19:25 55.62104 12.65059 20 ft 0 kts 33°
2026-05-04 19:25 55.62114 12.65070 20 ft 7 kts 34°
2026-05-04 19:26 55.62180 12.65148 20 ft 12 kts 34°
2026-05-04 19:26 55.62212 12.65180 20 ft 0 kts 21°
2026-05-04 19:26 55.62217 12.65181 20 ft 1 kts
2026-05-04 19:26 55.62242 12.65156 20 ft 8 kts 317°
2026-05-04 19:27 55.62290 12.65036 20 ft 15 kts 301°
2026-05-04 19:27 55.62346 12.64881 21 ft 14 kts 303°
2026-05-04 19:27 55.62401 12.64728 21 ft 14 kts 302°
2026-05-04 19:27 55.62418 12.64682 21 ft 0 kts 303°
2026-05-04 19:28 55.62418 12.64681 21 ft 0 kts 307°
2026-05-04 19:28 55.62425 12.64675 21 ft 2 kts 340°
2026-05-04 19:28 55.62455 12.64661 21 ft 6 kts 351°
2026-05-04 19:28 55.62511 12.64654 21 ft 9 kts 359°
2026-05-04 19:29 55.62589 12.64652 21 ft 12 kts
2026-05-04 19:29 55.62625 12.64651 21 ft 3 kts 323°
2026-05-04 19:29 55.62637 12.64612 21 ft 1 kts 289°
2026-05-04 19:29 55.62642 12.64585 21 ft 2 kts 284°
2026-05-04 19:30 55.62644 12.64573 21 ft 0 kts 283°
2026-05-04 19:30 55.62645 12.64566 21 ft 0 kts 283°
2026-05-04 19:30 55.62645 12.64564 21 ft 0 kts 283°